TimeCEST,TemperatureF,Dew PointF,Humidity,Sea Level PressureIn,VisibilityMPH,Wind Direction,Wind SpeedMPH,Gust SpeedMPH,PrecipitationIn,Events,Conditions,WindDirDegrees,DateUTC
12:00 AM,62.6,62.6,100,29.74,6.2,SSE,1.2,-,N/A,Rain,Rain Showers,150,2012-10-25 22:00:00
12:12 AM,62.6,62.6,100,29.74,4.3,Variable,2.3,-,N/A,Rain,Heavy Rain Showers,0,2012-10-25 22:12:00
12:25 AM,62.6,62.6,100,29.74,2.5,ESE,8.1,-,N/A,Rain,Heavy Rain Showers,110,2012-10-25 22:25:00
12:27 AM,62.6,62.6,100,29.74,1.2,Variable,6.9,-,N/A,Rain,Heavy Rain Showers,0,2012-10-25 22:27:00
12:30 AM,62.6,62.6,100,29.74,1.2,NNE,4.6,-,N/A,Rain,Heavy Rain Showers,30,2012-10-25 22:30:00
12:49 AM,62.6,62.6,100,29.74,2.5,ENE,5.8,-,N/A,Rain,Heavy Rain Showers,60,2012-10-25 22:49:00
1:00 AM,60.8,60.8,100,29.74,3.7,WNW,6.9,-,N/A,Rain,Rain Showers,300,2012-10-25 23:00:00
1:18 AM,60.8,60.8,100,29.74,6.2,NW,3.5,17.3,N/A,Rain,Light Rain Showers,320,2012-10-25 23:18:00
1:30 AM,60.8,60.8,100,29.74,6.2,Variable,1.2,-,N/A,,Mostly Cloudy,0,2012-10-25 23:30:00
1:35 AM,60.8,60.8,100,29.74,5.0,Calm,Calm,-,N/A,Rain,Rain Showers,0,2012-10-25 23:35:00
1:43 AM,60.8,60.8,100,29.74,2.5,Calm,Calm,-,N/A,Rain,Heavy Rain Showers,0,2012-10-25 23:43:00
1:54 AM,60.8,60.8,100,29.74,3.1,Variable,1.2,-,N/A,Rain,Heavy Rain Showers,0,2012-10-25 23:54:00
2:00 AM,62,60,92,29.75,9,NE,2.3,,,Rain,Light Rain Showers,50,2012-10-26 00:00:00
2:00 AM,60.8,60.8,100,29.74,6.2,NE,2.3,-,N/A,Rain,Light Rain Showers,50,2012-10-26 00:00:00
2:30 AM,60.8,60.8,100,29.74,6.2,Calm,Calm,-,N/A,,Mostly Cloudy,0,2012-10-26 00:30:00
3:00 AM,62.6,62.6,100,29.71,6.2,South,9.2,-,N/A,,Mostly Cloudy,170,2012-10-26 01:00:00
3:30 AM,62.6,62.6,100,29.71,6.2,South,5.8,-,N/A,,Mostly Cloudy,170,2012-10-26 01:30:00
3:50 AM,60.8,60.8,100,29.71,6.2,West,5.8,-,N/A,Rain,Rain Showers,280,2012-10-26 01:50:00
4:00 AM,60.8,60.8,100,29.71,4.3,West,3.5,-,N/A,Rain,Rain Showers,280,2012-10-26 02:00:00
4:02 AM,60.8,60.8,100,29.71,2.5,Variable,2.3,-,N/A,Rain,Heavy Rain Showers,0,2012-10-26 02:02:00
4:09 AM,60.8,60.8,100,29.71,1.6,Variable,1.2,-,N/A,Rain,Heavy Rain Showers,0,2012-10-26 02:09:00
4:19 AM,60.8,60.8,100,29.71,3.7,Calm,Calm,-,N/A,Rain,Rain Showers,0,2012-10-26 02:19:00
4:30 AM,60.8,60.8,100,29.71,6.2,WNW,5.8,-,N/A,,Mostly Cloudy,290,2012-10-26 02:30:00
5:30 AM,60.8,60.8,100,29.68,6.2,Variable,1.2,-,N/A,Rain,Rain Showers,0,2012-10-26 03:30:00
5:40 AM,60.8,60.8,100,29.68,6.2,Variable,1.2,-,N/A,,Mostly Cloudy,0,2012-10-26 03:40:00
6:00 AM,62.6,60.8,94,29.68,6.2,Calm,Calm,-,N/A,Rain,Light Rain Showers,0,2012-10-26 04:00:00
6:30 AM,62.6,62.6,100,29.68,6.2,Calm,Calm,-,N/A,,Mostly Cloudy,0,2012-10-26 04:30:00
7:00 AM,62.6,62.6,100,29.68,6.2,NE,3.5,-,N/A,,Mostly Cloudy,50,2012-10-26 05:00:00
7:30 AM,62.6,62.6,100,29.71,5.0,ENE,3.5,-,N/A,,Mostly Cloudy,70,2012-10-26 05:30:00
8:00 AM,63,61,90,29.71,6,West,3.5,,,,Partly Cloudy,270,2012-10-26 06:00:00
8:00 AM,62.6,60.8,94,29.68,6.2,West,3.5,-,N/A,,Mostly Cloudy,270,2012-10-26 06:00:00
8:30 AM,62.6,60.8,94,29.68,6.2,NW,1.2,-,N/A,,Mostly Cloudy,310,2012-10-26 06:30:00
9:00 AM,60.8,60.8,100,29.68,6.2,NW,2.3,-,N/A,,Mostly Cloudy,310,2012-10-26 07:00:00
9:30 AM,62.6,62.6,100,29.68,6.2,Calm,Calm,-,N/A,,Mostly Cloudy,0,2012-10-26 07:30:00
10:00 AM,62.6,62.6,100,29.71,6.2,Calm,Calm,-,N/A,,Mostly Cloudy,0,2012-10-26 08:00:00
10:14 AM,62.6,62.6,100,29.71,4.3,Calm,Calm,-,N/A,Rain,Rain,0,2012-10-26 08:14:00
10:30 AM,62.6,62.6,100,29.71,3.1,Calm,Calm,-,N/A,Rain,Rain,0,2012-10-26 08:30:00
11:00 AM,62.6,62.6,100,29.71,3.7,NE,1.2,-,N/A,Rain,Light Rain,50,2012-10-26 09:00:00
11:30 AM,62.6,62.6,100,29.71,3.1,ESE,3.5,-,N/A,Rain,Rain,120,2012-10-26 09:30:00
12:00 PM,62.6,62.6,100,29.71,3.1,ESE,4.6,-,N/A,Rain,Light Rain,120,2012-10-26 10:00:00
12:30 PM,62.6,62.6,100,29.71,3.7,ESE,8.1,-,N/A,Rain,Light Rain,110,2012-10-26 10:30:00
1:00 PM,64.4,62.6,94,29.68,4.3,SE,4.6,-,N/A,Rain,Light Rain,130,2012-10-26 11:00:00
1:30 PM,64.4,64.4,100,29.68,5.0,SE,3.5,-,N/A,,Scattered Clouds,140,2012-10-26 11:30:00
2:00 PM,64,62,92,29.69,5,SSE,3.5,,,Rain,Light Drizzle,160,2012-10-26 12:00:00
2:00 PM,66.2,64.4,94,29.68,5.0,SSE,3.5,-,N/A,Rain,Light Rain,160,2012-10-26 12:00:00
3:00 PM,66.2,62.6,88,29.65,5.0,South,9.2,-,N/A,,Mostly Cloudy,170,2012-10-26 13:00:00
3:30 PM,64.4,62.6,94,29.65,5.0,SSE,6.9,-,N/A,,Mostly Cloudy,150,2012-10-26 13:30:00
4:00 PM,62.6,62.6,100,29.65,5.0,ESE,10.4,-,N/A,Rain,Light Rain,120,2012-10-26 14:00:00
5:00 PM,64.4,62.6,94,29.62,5.0,ESE,5.8,-,N/A,,Mostly Cloudy,120,2012-10-26 15:00:00
5:30 PM,64.4,62.6,94,29.62,5.0,ENE,5.8,-,N/A,,Mostly Cloudy,70,2012-10-26 15:30:00
6:00 PM,64.4,62.6,94,29.62,5.6,East,4.6,-,N/A,,Scattered Clouds,80,2012-10-26 16:00:00
6:30 PM,64.4,62.6,94,29.62,5.6,ENE,3.5,-,N/A,,Scattered Clouds,70,2012-10-26 16:30:00
7:00 PM,64.4,62.6,94,29.62,6.2,Variable,2.3,-,N/A,,Scattered Clouds,0,2012-10-26 17:00:00
7:30 PM,64.4,62.6,94,29.65,6.2,Calm,Calm,-,N/A,,Scattered Clouds,0,2012-10-26 17:30:00
8:00 PM,63,62,95,29.65,7,Calm,Calm,,,,Partly Cloudy,,2012-10-26 18:00:00
8:00 PM,62.6,62.6,100,29.65,6.2,Calm,Calm,-,N/A,,Scattered Clouds,0,2012-10-26 18:00:00
8:30 PM,62.6,62.6,100,29.65,6.2,Calm,Calm,-,N/A,,Scattered Clouds,0,2012-10-26 18:30:00
9:00 PM,60.8,60.8,100,29.65,3.7,Calm,Calm,-,N/A,,Scattered Clouds,0,2012-10-26 19:00:00
9:30 PM,60.8,60.8,100,29.65,3.7,Variable,1.2,-,N/A,,Scattered Clouds,0,2012-10-26 19:30:00
10:00 PM,60.8,60.8,100,29.65,3.1,Variable,1.2,-,N/A,,Scattered Clouds,0,2012-10-26 20:00:00
10:30 PM,60.8,60.8,100,29.68,3.1,Calm,Calm,-,N/A,,Scattered Clouds,0,2012-10-26 20:30:00
11:00 PM,62.6,62.6,100,29.68,3.1,NNW,4.6,-,N/A,,Scattered Clouds,330,2012-10-26 21:00:00
11:30 PM,60.8,60.8,100,29.68,0.3,WNW,8.1,-,N/A,Fog,Patches of Fog,290,2012-10-26 21:30:00
11:34 PM,60.8,60.8,100,29.68,0.1,WNW,8.1,-,N/A,Fog,Fog,290,2012-10-26 21:34:00